LNI084 WIMM-OEMA

Flight info

Callsign LNI084
Flight time 7h 59m
Altitude 34000
Route MAIMU DCT MEMAK N563 REXOD L883 UMILA N569 TOKRA DCT ITRUX Y511 ELONU
Aircraft A339/H-SADE1E2E3GHIJ1J3J5M1P2RWXY/LB2D1

Departure

Time 2026-04-24 11:12
Airport Kualanamu International Airport (WIMM)

Arrival

Time 2026-04-24 19:11
Airport Prince Mohammad Bin Abdulaziz Airport (OEMA)
Time Latitude Longitude Altitude Speed Heading
2026-04-24 10:19 3.63864 98.87882 41 ft 0 kts 230°
2026-04-24 10:41 3.63865 98.87882 41 ft 1 kts 230°
2026-04-24 10:41 3.63873 98.87894 41 ft 2 kts 242°
2026-04-24 10:41 3.63879 98.87907 41 ft 2 kts 254°
2026-04-24 10:41 3.63883 98.87923 41 ft 2 kts 265°
2026-04-24 10:42 3.63883 98.87938 41 ft 2 kts 276°
2026-04-24 10:42 3.63880 98.87952 41 ft 2 kts 287°
2026-04-24 10:42 3.63875 98.87966 41 ft 2 kts 297°
2026-04-24 10:42 3.63867 98.87979 41 ft 2 kts 309°
2026-04-24 10:43 3.63856 98.87990 41 ft 2 kts 317°
2026-04-24 10:43 3.63849 98.87997 41 ft 0 kts 316°
2026-04-24 10:43 3.63848 98.87998 41 ft 0 kts 316°
2026-04-24 10:49 3.63849 98.87997 40 ft 0 kts 316°
2026-04-24 10:49 3.63854 98.87992 40 ft 1 kts 316°
2026-04-24 10:49 3.63867 98.87980 40 ft 3 kts 316°
2026-04-24 10:49 3.63887 98.87962 41 ft 4 kts 322°
2026-04-24 10:50 3.63914 98.87960 40 ft 4 kts 35°
2026-04-24 10:50 3.63937 98.87983 40 ft 4 kts 44°
2026-04-24 10:50 3.63965 98.88010 40 ft 6 kts 44°
2026-04-24 10:50 3.63997 98.88042 41 ft 6 kts 44°
2026-04-24 10:51 3.64026 98.88069 42 ft 5 kts 44°
2026-04-24 10:51 3.64052 98.88094 43 ft 4 kts 44°
2026-04-24 10:51 3.64075 98.88116 44 ft 4 kts 44°
2026-04-24 10:51 3.64098 98.88138 44 ft 4 kts 44°
2026-04-24 10:52 3.64124 98.88151 45 ft 3 kts
2026-04-24 10:52 3.64139 98.88143 45 ft 2 kts 313°
2026-04-24 10:52 3.64156 98.88126 45 ft 4 kts 313°
2026-04-24 10:52 3.64188 98.88092 45 ft 8 kts 314°
2026-04-24 10:53 3.64234 98.88045 44 ft 10 kts 315°
2026-04-24 10:53 3.64288 98.87991 43 ft 11 kts 308°
2026-04-24 10:53 3.64265 98.87917 40 ft 13 kts 219°
2026-04-24 10:53 3.64207 98.87865 39 ft 11 kts 225°
2026-04-24 10:54 3.64150 98.87810 37 ft 11 kts 224°
2026-04-24 10:54 3.64093 98.87753 37 ft 7 kts 224°
2026-04-24 10:54 3.64051 98.87713 37 ft 8 kts 224°
2026-04-24 10:54 3.64005 98.87667 37 ft 9 kts 224°
2026-04-24 10:55 3.63956 98.87619 38 ft 9 kts 224°
2026-04-24 10:55 3.63905 98.87569 38 ft 10 kts 225°
2026-04-24 10:55 3.63863 98.87527 41 ft 7 kts 225°
2026-04-24 10:55 3.63834 98.87497 43 ft 5 kts 225°
2026-04-24 10:56 3.63809 98.87471 45 ft 5 kts 226°
2026-04-24 10:56 3.63780 98.87442 46 ft 6 kts 224°
2026-04-24 10:56 3.63743 98.87406 47 ft 7 kts 224°
2026-04-24 10:56 3.63701 98.87365 49 ft 8 kts 224°
2026-04-24 10:57 3.63653 98.87319 51 ft 9 kts 224°
2026-04-24 10:57 3.63612 98.87267 53 ft 8 kts 254°
2026-04-24 10:57 3.63632 98.87209 54 ft 8 kts 303°
2026-04-24 10:57 3.63627 98.87169 54 ft 5 kts 218°
2026-04-24 10:58 3.63602 98.87144 55 ft 6 kts 227°
2026-04-24 10:58 3.63555 98.87093 55 ft 12 kts 226°
2026-04-24 10:58 3.63489 98.87027 55 ft 13 kts 225°
2026-04-24 10:58 3.63418 98.86956 53 ft 14 kts 225°
2026-04-24 10:59 3.63341 98.86878 52 ft 16 kts 226°
2026-04-24 10:59 3.63256 98.86793 48 ft 16 kts 225°
2026-04-24 10:59 3.63177 98.86712 45 ft 14 kts 225°
2026-04-24 10:59 3.63102 98.86636 43 ft 16 kts 225°
2026-04-24 11:00 3.63018 98.86552 41 ft 16 kts 225°
2026-04-24 11:00 3.62937 98.86471 42 ft 15 kts 225°
2026-04-24 11:00 3.62872 98.86406 43 ft 12 kts 225°
2026-04-24 11:00 3.62813 98.86346 45 ft 11 kts 225°
2026-04-24 11:01 3.62763 98.86296 46 ft 9 kts 225°
2026-04-24 11:01 3.62719 98.86253 47 ft 8 kts 224°
2026-04-24 11:01 3.62679 98.86214 49 ft 8 kts 225°
2026-04-24 11:01 3.62637 98.86173 51 ft 8 kts 225°
2026-04-24 11:02 3.62596 98.86131 53 ft 8 kts 225°
2026-04-24 11:02 3.62557 98.86092 54 ft 7 kts 225°
2026-04-24 11:02 3.62518 98.86053 56 ft 7 kts 225°
2026-04-24 11:02 3.62495 98.86013 57 ft 7 kts 264°
2026-04-24 11:03 3.62511 98.85969 57 ft 5 kts 301°
2026-04-24 11:03 3.62516 98.85962 57 ft 0 kts 310°
2026-04-24 11:08 3.62519 98.85958 57 ft 1 kts 310°
2026-04-24 11:08 3.62531 98.85944 57 ft 3 kts 310°
2026-04-24 11:08 3.62550 98.85922 57 ft 4 kts 310°
2026-04-24 11:08 3.62576 98.85893 57 ft 6 kts 316°
2026-04-24 11:09 3.62618 98.85894 55 ft 6 kts 49°
2026-04-24 11:09 3.62626 98.85903 55 ft 0 kts 44°
2026-04-24 11:10 3.62633 98.85911 55 ft 5 kts 44°
2026-04-24 11:10 3.62791 98.86066 49 ft 62 kts 46°
2026-04-24 11:11 3.63252 98.86523 44 ft 118 kts 45°
2026-04-24 11:11 3.63960 98.87225 41 ft 165 kts 45°
2026-04-24 11:11 3.64888 98.88144 99 ft 198 kts 45°
2026-04-24 11:11 3.65891 98.89134 525 ft 206 kts 44°
2026-04-24 11:12 3.67040 98.89928 1273 ft 201 kts 11°
2026-04-24 11:12 3.68395 98.89786 2000 ft 194 kts 333°
2026-04-24 11:12 3.69443 98.88887 2259 ft 207 kts 308°
2026-04-24 11:12 3.70305 98.87658 2491 ft 220 kts 306°
2026-04-24 11:13 3.71193 98.86343 2728 ft 233 kts 306°
2026-04-24 11:13 3.72160 98.84948 2972 ft 247 kts 306°
2026-04-24 11:13 3.73182 98.83511 3217 ft 260 kts 307°
2026-04-24 11:13 3.74285 98.81987 3523 ft 272 kts 307°
2026-04-24 11:14 3.75426 98.80421 4022 ft 276 kts 307°
2026-04-24 11:14 3.76566 98.78861 4555 ft 277 kts 307°
2026-04-24 11:14 3.77718 98.77288 5081 ft 279 kts 307°
2026-04-24 11:14 3.78862 98.75729 5593 ft 281 kts 307°
2026-04-24 11:15 3.80034 98.74129 6101 ft 284 kts 307°
2026-04-24 11:15 3.81214 98.72520 6611 ft 285 kts 306°
2026-04-24 11:15 3.82231 98.70779 7100 ft 288 kts 295°
2026-04-24 11:15 3.82979 98.68891 7583 ft 291 kts 291°
2026-04-24 11:16 3.83678 98.66959 8059 ft 293 kts 289°
2026-04-24 11:16 3.84260 98.64971 8533 ft 296 kts 285°
2026-04-24 11:16 3.84775 98.62976 8986 ft 298 kts 285°
2026-04-24 11:16 3.85296 98.60934 9448 ft 300 kts 285°
2026-04-24 11:17 3.85825 98.58889 9892 ft 303 kts 285°
2026-04-24 11:17 3.86365 98.56827 10275 ft 308 kts 285°
2026-04-24 11:17 3.86938 98.54656 10485 ft 320 kts 285°
2026-04-24 11:17 3.87521 98.52461 10690 ft 332 kts 285°
2026-04-24 11:18 3.88131 98.50167 10894 ft 343 kts 285°
2026-04-24 11:18 3.88760 98.47807 11089 ft 355 kts 285°
2026-04-24 11:18 3.89410 98.45370 11287 ft 366 kts 285°
2026-04-24 11:18 3.90090 98.42822 11494 ft 377 kts 285°
2026-04-24 11:19 3.90779 98.40241 11842 ft 383 kts 285°
2026-04-24 11:19 3.91477 98.37626 12289 ft 385 kts 285°
2026-04-24 11:19 3.92183 98.34981 12732 ft 388 kts 285°
2026-04-24 11:19 3.92889 98.32333 13160 ft 391 kts 285°
2026-04-24 11:20 3.93594 98.29692 13575 ft 394 kts 285°
2026-04-24 11:20 3.94307 98.27019 14004 ft 396 kts 285°
2026-04-24 11:20 3.95023 98.24336 14424 ft 398 kts 285°
2026-04-24 11:20 3.95752 98.21603 14829 ft 401 kts 285°
2026-04-24 11:21 3.96475 98.18892 15211 ft 404 kts 284°
2026-04-24 11:21 3.97209 98.16137 15600 ft 407 kts 284°
2026-04-24 11:21 3.97939 98.13399 15971 ft 411 kts 284°
2026-04-24 11:21 3.98689 98.10584 16353 ft 413 kts 284°
2026-04-24 11:22 3.99430 98.07805 16737 ft 416 kts 284°
2026-04-24 11:22 4.00181 98.04984 17122 ft 418 kts 284°
2026-04-24 11:22 4.00939 98.02138 17522 ft 420 kts 284°
2026-04-24 11:22 4.01698 97.99290 17928 ft 421 kts 284°
2026-04-24 11:23 4.02465 97.96409 18315 ft 424 kts 284°
2026-04-24 11:23 4.03233 97.93521 18690 ft 426 kts 284°
2026-04-24 11:23 4.04011 97.90597 19073 ft 428 kts 284°
2026-04-24 11:23 4.04779 97.87714 19443 ft 430 kts 284°
2026-04-24 11:24 4.05560 97.84777 19806 ft 431 kts 284°
2026-04-24 11:24 4.06344 97.81834 20183 ft 433 kts 284°
2026-04-24 11:24 4.07123 97.78907 20534 ft 434 kts 284°
2026-04-24 11:24 4.07906 97.75964 20877 ft 436 kts 284°
2026-04-24 11:25 4.08697 97.72989 21214 ft 437 kts 284°
2026-04-24 11:25 4.09487 97.70018 21553 ft 439 kts 284°
2026-04-24 11:25 4.10283 97.67027 21881 ft 440 kts 284°
2026-04-24 11:25 4.11077 97.64040 22205 ft 441 kts 284°
2026-04-24 11:26 4.11872 97.61047 22514 ft 442 kts 284°
2026-04-24 11:26 4.12666 97.58057 22804 ft 444 kts 284°
2026-04-24 11:26 4.13480 97.54995 23086 ft 446 kts 284°
2026-04-24 11:26 4.14291 97.51939 23366 ft 448 kts 284°
2026-04-24 11:27 4.15101 97.48891 23656 ft 450 kts 284°
2026-04-24 11:27 4.15909 97.45850 23945 ft 451 kts 284°
2026-04-24 11:27 4.16733 97.42746 24229 ft 453 kts 285°
2026-04-24 11:27 4.17544 97.39694 24502 ft 455 kts 285°
2026-04-24 11:28 4.18365 97.36603 24771 ft 456 kts 285°
2026-04-24 11:28 4.19187 97.33507 25034 ft 458 kts 285°
2026-04-24 11:28 4.20014 97.30393 25292 ft 460 kts 284°
2026-04-24 11:28 4.20851 97.27238 25558 ft 461 kts 284°
2026-04-24 11:29 4.21683 97.24100 25802 ft 463 kts 284°
2026-04-24 11:29 4.22514 97.20968 26045 ft 464 kts 284°
2026-04-24 11:29 4.23348 97.17825 26289 ft 466 kts 284°
2026-04-24 11:29 4.24185 97.14668 26523 ft 468 kts 284°
2026-04-24 11:30 4.25035 97.11462 26752 ft 469 kts 284°
2026-04-24 11:30 4.25872 97.08306 26986 ft 471 kts 284°
2026-04-24 11:30 4.26722 97.05099 27221 ft 472 kts 284°
2026-04-24 11:30 4.27576 97.01872 27454 ft 473 kts 284°
2026-04-24 11:31 4.28428 96.98658 27669 ft 475 kts 284°
2026-04-24 11:31 4.29281 96.95431 27873 ft 477 kts 284°
2026-04-24 11:31 4.30135 96.92207 28081 ft 478 kts 284°
2026-04-24 11:31 4.30990 96.88978 28292 ft 480 kts 284°
2026-04-24 11:32 4.31855 96.85712 28505 ft 481 kts 284°
2026-04-24 11:32 4.32715 96.82461 28713 ft 483 kts 284°
2026-04-24 11:32 4.33586 96.79169 28917 ft 484 kts 284°
2026-04-24 11:32 4.34504 96.75910 29098 ft 486 kts 287°
2026-04-24 11:33 4.35606 96.72651 29297 ft 488 kts 290°
2026-04-24 11:33 4.36867 96.69495 29474 ft 490 kts 293°
2026-04-24 11:33 4.39721 96.63184 29666 ft 498 kts 294°
2026-04-24 11:34 4.42638 96.56811 29846 ft 504 kts 294°
2026-04-24 11:34 4.45608 96.50304 30028 ft 511 kts 294°
2026-04-24 11:35 4.48593 96.43751 30192 ft 516 kts 294°
2026-04-24 11:35 4.51587 96.37170 30394 ft 520 kts 294°
2026-04-24 11:36 4.53099 96.33846 30581 ft 519 kts 294°
2026-04-24 11:36 4.54608 96.30529 30814 ft 518 kts 294°
2026-04-24 11:36 4.56120 96.27203 31185 ft 513 kts 294°
2026-04-24 11:36 4.57591 96.23966 31553 ft 509 kts 294°
2026-04-24 11:37 4.59077 96.20695 31804 ft 508 kts 294°
2026-04-24 11:37 4.60531 96.17496 31984 ft 508 kts 294°
2026-04-24 11:37 4.62009 96.14243 32169 ft 508 kts 295°
2026-04-24 11:37 4.63482 96.11004 32364 ft 508 kts 295°
2026-04-24 11:38 4.64960 96.07751 32579 ft 507 kts 295°
2026-04-24 11:38 4.66416 96.04549 32829 ft 506 kts 295°
2026-04-24 11:38 4.67885 96.01318 33099 ft 505 kts 295°
2026-04-24 11:38 4.69334 95.98124 33342 ft 504 kts 295°
2026-04-24 11:39 4.70790 95.94916 33587 ft 503 kts 295°
2026-04-24 11:39 4.72250 95.91702 33826 ft 502 kts 295°
2026-04-24 11:39 4.75148 95.85316 33871 ft 502 kts 295°
2026-04-24 11:40 4.78054 95.78914 33870 ft 502 kts 295°
2026-04-24 11:40 4.80958 95.72515 33874 ft 501 kts 295°
2026-04-24 11:41 4.83867 95.66100 33876 ft 501 kts 295°
2026-04-24 11:41 4.86752 95.59736 33876 ft 500 kts 295°
2026-04-24 11:42 4.89646 95.53348 33866 ft 500 kts 295°
2026-04-24 11:42 4.92542 95.46954 33860 ft 500 kts 295°
2026-04-24 11:43 4.95433 95.40574 33849 ft 500 kts 295°
2026-04-24 11:43 4.98333 95.34171 33831 ft 499 kts 295°
2026-04-24 11:44 5.01220 95.27795 33817 ft 499 kts 295°
2026-04-24 11:44 5.04099 95.21435 33797 ft 498 kts 295°
2026-04-24 11:45 5.06984 95.15058 33789 ft 498 kts 295°
2026-04-24 11:45 5.09857 95.08705 33783 ft 498 kts 295°
2026-04-24 11:46 5.12726 95.02361 33792 ft 498 kts 295°
2026-04-24 11:46 5.15605 94.95991 33794 ft 498 kts 295°
2026-04-24 11:47 5.18487 94.89613 33795 ft 498 kts 295°
2026-04-24 11:47 5.21378 94.83216 33796 ft 498 kts 295°
2026-04-24 11:48 5.24260 94.76834 33794 ft 498 kts 295°
2026-04-24 11:48 5.27142 94.70451 33796 ft 498 kts 295°
2026-04-24 11:49 5.30020 94.64072 33795 ft 497 kts 295°
2026-04-24 11:49 5.32882 94.57728 33795 ft 498 kts 295°
2026-04-24 11:50 5.35761 94.51347 33794 ft 498 kts 295°
2026-04-24 11:50 5.38631 94.44979 33792 ft 499 kts 295°
2026-04-24 11:51 5.41527 94.38555 33796 ft 499 kts 295°
2026-04-24 11:51 5.44400 94.32180 33794 ft 499 kts 295°
2026-04-24 11:52 5.47285 94.25774 33793 ft 499 kts 295°
2026-04-24 11:52 5.50160 94.19389 33792 ft 499 kts 295°
2026-04-24 11:53 5.53051 94.12968 33795 ft 499 kts 295°
2026-04-24 11:53 5.55933 94.06560 33792 ft 499 kts 295°
2026-04-24 11:54 5.58829 94.00123 33794 ft 500 kts 295°
2026-04-24 11:54 5.61687 93.93768 33790 ft 500 kts 295°
2026-04-24 11:55 5.64574 93.87348 33786 ft 500 kts 295°
2026-04-24 11:55 5.67456 93.80934 33787 ft 500 kts 295°
2026-04-24 11:56 5.70316 93.74565 33792 ft 500 kts 295°
2026-04-24 11:56 5.73210 93.68119 33795 ft 501 kts 295°
2026-04-24 11:57 5.76085 93.61716 33791 ft 502 kts 295°
2026-04-24 11:57 5.78976 93.55274 33791 ft 502 kts 295°
2026-04-24 11:58 5.81891 93.48778 33792 ft 502 kts 295°
2026-04-24 11:58 5.84777 93.42340 33796 ft 502 kts 295°
2026-04-24 11:59 5.87637 93.35956 33791 ft 502 kts 295°
2026-04-24 11:59 5.90504 93.29556 33791 ft 502 kts 295°
2026-04-24 12:00 5.93378 93.23138 33791 ft 504 kts 295°
2026-04-24 12:00 5.96279 93.16659 33792 ft 504 kts 295°
2026-04-24 12:01 5.99137 93.10268 33793 ft 503 kts 295°
2026-04-24 12:01 6.02031 93.03864 33794 ft 503 kts 295°
2026-04-24 12:02 6.04971 92.97440 33797 ft 503 kts 295°
2026-04-24 12:02 6.07884 92.91065 33802 ft 504 kts 295°
2026-04-24 12:03 6.10820 92.84629 33811 ft 504 kts 295°
2026-04-24 12:03 6.13738 92.78223 33815 ft 504 kts 295°
2026-04-24 12:04 6.16672 92.71779 33817 ft 504 kts 295°
2026-04-24 12:04 6.19587 92.65374 33818 ft 504 kts 295°
2026-04-24 12:05 6.22499 92.58974 33815 ft 504 kts 295°
2026-04-24 12:05 6.25431 92.52528 33816 ft 504 kts 295°
2026-04-24 12:06 6.28341 92.46127 33815 ft 504 kts 295°
2026-04-24 12:06 6.31279 92.39663 33812 ft 504 kts 295°
2026-04-24 12:07 6.34198 92.33235 33810 ft 505 kts 295°
2026-04-24 12:07 6.37127 92.26787 33806 ft 505 kts 295°
2026-04-24 12:08 6.40049 92.20350 33796 ft 505 kts 295°
2026-04-24 12:08 6.42969 92.13918 33792 ft 505 kts 295°
2026-04-24 12:09 6.45891 92.07479 33793 ft 505 kts 295°
2026-04-24 12:09 6.48825 92.01011 33790 ft 505 kts 295°
2026-04-24 12:10 6.51751 91.94555 33789 ft 505 kts 295°
2026-04-24 12:11 6.56129 91.84890 33792 ft 505 kts 295°
2026-04-24 12:11 6.59034 91.78474 33791 ft 504 kts 295°
2026-04-24 12:12 6.61950 91.72033 33789 ft 504 kts 295°
2026-04-24 12:12 6.64858 91.65607 33791 ft 504 kts 295°
2026-04-24 12:13 6.67777 91.59153 33790 ft 504 kts 295°
2026-04-24 12:13 6.70675 91.52743 33790 ft 504 kts 295°
2026-04-24 12:14 6.73574 91.46329 33790 ft 504 kts 295°
2026-04-24 12:14 6.76492 91.39865 33791 ft 504 kts 295°
2026-04-24 12:15 6.79398 91.33431 33790 ft 503 kts 295°
2026-04-24 12:15 6.82297 91.27008 33791 ft 503 kts 295°
2026-04-24 12:16 6.85194 91.20588 33793 ft 503 kts 295°
2026-04-24 12:16 6.88082 91.14185 33794 ft 502 kts 295°
2026-04-24 12:17 6.90988 91.07737 33803 ft 503 kts 295°
2026-04-24 12:17 6.93884 91.01309 33811 ft 504 kts 295°
2026-04-24 12:18 6.96783 90.94872 33814 ft 503 kts 295°
2026-04-24 12:18 6.99669 90.88462 33814 ft 502 kts 295°
2026-04-24 12:19 7.02558 90.82044 33814 ft 502 kts 295°
2026-04-24 12:19 7.05458 90.75598 33815 ft 501 kts 295°
2026-04-24 12:20 7.08338 90.69194 33814 ft 502 kts 295°
2026-04-24 12:20 7.11219 90.62780 33813 ft 502 kts 295°
2026-04-24 12:21 7.14095 90.56375 33815 ft 502 kts 295°
2026-04-24 12:21 7.16986 90.49939 33813 ft 501 kts 295°
2026-04-24 12:22 7.19853 90.43552 33815 ft 500 kts 295°
2026-04-24 12:22 7.22721 90.37161 33813 ft 500 kts 295°
2026-04-24 12:23 7.25605 90.30729 33811 ft 500 kts 295°
2026-04-24 12:23 7.28469 90.24341 33807 ft 500 kts 295°
2026-04-24 12:24 7.31335 90.17943 33799 ft 500 kts 295°
2026-04-24 12:24 7.34213 90.11517 33793 ft 500 kts 295°
2026-04-24 12:25 7.37064 90.05147 33791 ft 500 kts 295°
2026-04-24 12:25 7.39942 89.98717 33792 ft 499 kts 295°
2026-04-24 12:26 7.42795 89.92339 33793 ft 500 kts 295°
2026-04-24 12:26 7.45649 89.85955 33792 ft 500 kts 295°
2026-04-24 12:27 7.48513 89.79544 33794 ft 501 kts 294°
2026-04-24 12:27 7.51395 89.73089 33794 ft 501 kts 294°
2026-04-24 12:28 7.54259 89.66671 33800 ft 501 kts 295°
2026-04-24 12:28 7.57118 89.60265 33808 ft 500 kts 295°
2026-04-24 12:29 7.59977 89.53854 33812 ft 500 kts 294°
2026-04-24 12:29 7.62824 89.47466 33815 ft 500 kts 294°
2026-04-24 12:30 7.65670 89.41076 33815 ft 500 kts 294°
2026-04-24 12:30 7.68525 89.34662 33815 ft 500 kts 294°
2026-04-24 12:31 7.71427 89.28230 33815 ft 500 kts 295°
2026-04-24 12:31 7.74355 89.21844 33814 ft 500 kts 295°
2026-04-24 12:32 7.77273 89.15469 33814 ft 499 kts 295°
2026-04-24 12:32 7.80185 89.09094 33814 ft 499 kts 295°
2026-04-24 12:33 7.83096 89.02711 33815 ft 499 kts 295°
2026-04-24 12:33 7.85997 88.96349 33814 ft 499 kts 295°
2026-04-24 12:34 7.88895 88.89990 33814 ft 499 kts 294°
2026-04-24 12:34 7.91808 88.83591 33814 ft 499 kts 294°
2026-04-24 12:35 7.94699 88.77233 33815 ft 499 kts 295°
2026-04-24 12:35 7.97613 88.70827 33814 ft 498 kts 295°
2026-04-24 12:36 8.00505 88.64468 33815 ft 498 kts 295°
2026-04-24 12:36 8.03401 88.58097 33815 ft 498 kts 294°
2026-04-24 12:37 8.06311 88.51695 33814 ft 499 kts 294°
2026-04-24 12:37 8.09201 88.45327 33817 ft 499 kts 294°
2026-04-24 12:38 8.12104 88.38928 33823 ft 498 kts 294°
2026-04-24 12:38 8.14986 88.32574 33827 ft 498 kts 294°
2026-04-24 12:39 8.20765 88.19826 33831 ft 498 kts 294°
2026-04-24 12:40 8.23647 88.13461 33831 ft 498 kts 294°
2026-04-24 12:40 8.26535 88.07081 33828 ft 498 kts 294°
2026-04-24 12:41 8.29416 88.00714 33820 ft 497 kts 294°
2026-04-24 12:41 8.32299 87.94340 33815 ft 497 kts 294°
2026-04-24 12:42 8.35173 87.87980 33814 ft 498 kts 294°
2026-04-24 12:42 8.38051 87.81610 33814 ft 498 kts 294°
2026-04-24 12:43 8.40930 87.75235 33813 ft 498 kts 294°
2026-04-24 12:43 8.43811 87.68852 33814 ft 498 kts 294°
2026-04-24 12:44 8.46702 87.62445 33813 ft 497 kts 294°
2026-04-24 12:44 8.49575 87.56072 33814 ft 497 kts 294°
2026-04-24 12:45 8.52445 87.49702 33813 ft 497 kts 294°
2026-04-24 12:45 8.55315 87.43332 33814 ft 497 kts 294°
2026-04-24 12:46 8.58182 87.36961 33813 ft 498 kts 294°
2026-04-24 12:46 8.61054 87.30581 33814 ft 497 kts 294°
2026-04-24 12:47 8.63931 87.24183 33814 ft 497 kts 293°
2026-04-24 12:47 8.66788 87.17827 33814 ft 497 kts 293°
2026-04-24 12:48 8.69660 87.11433 33814 ft 497 kts 293°
2026-04-24 12:48 8.72522 87.05060 33814 ft 497 kts 293°
2026-04-24 12:49 8.75380 86.98690 33814 ft 497 kts 293°
2026-04-24 12:49 8.78234 86.92326 33814 ft 497 kts 294°
2026-04-24 12:50 8.81106 86.85921 33814 ft 497 kts 293°
2026-04-24 12:50 8.83958 86.79559 33817 ft 497 kts 293°
2026-04-24 12:51 8.86807 86.73197 33817 ft 496 kts 293°
2026-04-24 12:51 8.89669 86.66800 33824 ft 496 kts 293°
2026-04-24 12:52 8.92513 86.60440 33832 ft 496 kts 293°
2026-04-24 12:52 8.95377 86.54036 33834 ft 496 kts 293°
2026-04-24 12:53 8.98217 86.47677 33835 ft 495 kts 293°
2026-04-24 12:53 9.01051 86.41336 33835 ft 495 kts 293°
2026-04-24 12:54 9.03900 86.34952 33835 ft 495 kts 293°
2026-04-24 12:54 9.06729 86.28611 33835 ft 495 kts 293°
2026-04-24 12:55 9.09578 86.22223 33834 ft 495 kts 293°
2026-04-24 12:55 9.12406 86.15873 33834 ft 495 kts 293°
2026-04-24 12:56 9.15248 86.09487 33834 ft 495 kts 293°
2026-04-24 12:56 9.18073 86.03142 33829 ft 494 kts 293°
2026-04-24 12:57 9.20890 85.96804 33820 ft 494 kts 293°
2026-04-24 12:57 9.23726 85.90426 33818 ft 495 kts 292°
2026-04-24 12:58 9.26595 85.84049 33815 ft 496 kts 294°
2026-04-24 12:58 9.29541 85.77731 33815 ft 496 kts 294°
2026-04-24 12:59 9.32473 85.71438 33814 ft 495 kts 294°
2026-04-24 12:59 9.35426 85.65083 33814 ft 494 kts 294°
2026-04-24 13:00 9.38342 85.58792 33813 ft 494 kts 294°
2026-04-24 13:00 9.41273 85.52461 33814 ft 494 kts 293°
2026-04-24 13:01 9.44196 85.46145 33813 ft 494 kts 293°
2026-04-24 13:01 9.47117 85.39831 33814 ft 494 kts 293°
2026-04-24 13:02 9.50054 85.33477 33814 ft 494 kts 293°
2026-04-24 13:02 9.52970 85.27164 33817 ft 494 kts 293°
2026-04-24 13:03 9.55881 85.20860 33824 ft 494 kts 293°
2026-04-24 13:03 9.58808 85.14516 33825 ft 493 kts 293°
2026-04-24 13:04 9.61710 85.08226 33828 ft 492 kts 292°
2026-04-24 13:04 9.64620 85.01911 33830 ft 492 kts 293°
2026-04-24 13:05 9.67521 84.95612 33833 ft 492 kts 292°
2026-04-24 13:05 9.70416 84.89327 33833 ft 492 kts 292°
2026-04-24 13:06 9.73313 84.83031 33833 ft 492 kts 292°
2026-04-24 13:06 9.76208 84.76736 33833 ft 492 kts 292°
2026-04-24 13:07 9.79116 84.70407 33834 ft 492 kts 292°
2026-04-24 13:07 9.82013 84.64101 33834 ft 492 kts 292°
2026-04-24 13:08 9.84900 84.57814 33834 ft 491 kts 292°
2026-04-24 13:08 9.87806 84.51480 33834 ft 492 kts 292°
2026-04-24 13:09 9.92132 84.42042 33834 ft 492 kts 292°
2026-04-24 13:09 9.95018 84.35743 33834 ft 492 kts 292°
2026-04-24 13:10 9.97920 84.29407 33835 ft 492 kts 292°
2026-04-24 13:10 10.00804 84.23106 33834 ft 491 kts 292°
2026-04-24 13:11 10.03687 84.16801 33834 ft 491 kts 292°
2026-04-24 13:11 10.06567 84.10501 33834 ft 492 kts 292°
2026-04-24 13:12 10.09464 84.04161 33834 ft 492 kts 292°
2026-04-24 13:12 10.12330 83.97881 33834 ft 492 kts 292°
2026-04-24 13:13 10.15228 83.91530 33830 ft 492 kts 292°
2026-04-24 13:13 10.18111 83.85206 33821 ft 492 kts 292°
2026-04-24 13:14 10.20982 83.78905 33815 ft 491 kts 292°
2026-04-24 13:14 10.23872 83.72559 33814 ft 491 kts 292°
2026-04-24 13:15 10.26744 83.66250 33814 ft 491 kts 292°
2026-04-24 13:15 10.29608 83.59952 33816 ft 491 kts 292°
2026-04-24 13:16 10.32490 83.53612 33818 ft 491 kts 292°
2026-04-24 13:16 10.35363 83.47291 33822 ft 492 kts 292°
2026-04-24 13:17 10.38261 83.40909 33825 ft 491 kts 292°
2026-04-24 13:17 10.41132 83.34583 33827 ft 491 kts 292°
2026-04-24 13:18 10.44007 83.28240 33830 ft 490 kts 292°
2026-04-24 13:18 10.46874 83.21913 33833 ft 490 kts 292°
2026-04-24 13:19 10.49748 83.15565 33835 ft 490 kts 292°
2026-04-24 13:19 10.52622 83.09217 33835 ft 489 kts 292°
2026-04-24 13:20 10.55458 83.02946 33835 ft 490 kts 291°
2026-04-24 13:20 10.58304 82.96645 33835 ft 490 kts 291°
2026-04-24 13:21 10.61165 82.90305 33837 ft 490 kts 291°
2026-04-24 13:21 10.64008 82.84011 33836 ft 490 kts 292°
2026-04-24 13:22 10.66872 82.77714 33837 ft 490 kts 292°
2026-04-24 13:22 10.69745 82.71390 33835 ft 489 kts 292°
2026-04-24 13:23 10.72590 82.65118 33830 ft 490 kts 292°
2026-04-24 13:23 10.75446 82.58816 33830 ft 489 kts 292°
2026-04-24 13:24 10.78305 82.52502 33826 ft 489 kts 292°
2026-04-24 13:24 10.81151 82.46209 33822 ft 490 kts 292°
2026-04-24 13:25 10.84014 82.39878 33819 ft 490 kts 292°
2026-04-24 13:25 10.86874 82.33551 33815 ft 490 kts 291°
2026-04-24 13:26 10.89714 82.27261 33815 ft 490 kts 291°
2026-04-24 13:26 10.92574 82.20921 33817 ft 490 kts 291°
2026-04-24 13:27 10.95411 82.14629 33818 ft 490 kts 291°
2026-04-24 13:27 10.98249 82.08331 33814 ft 489 kts 292°
2026-04-24 13:28 11.01107 82.01985 33817 ft 488 kts 292°
2026-04-24 13:28 11.03938 81.95695 33812 ft 489 kts 292°
2026-04-24 13:29 11.06776 81.89388 33812 ft 489 kts 292°
2026-04-24 13:29 11.09620 81.83064 33812 ft 489 kts 291°
2026-04-24 13:30 11.12456 81.76748 33810 ft 489 kts 291°
2026-04-24 13:30 11.15294 81.70425 33812 ft 488 kts 291°
2026-04-24 13:31 11.18103 81.64163 33816 ft 488 kts 291°
2026-04-24 13:31 11.20928 81.57862 33820 ft 487 kts 291°
2026-04-24 13:32 11.23755 81.51552 33822 ft 487 kts 291°
2026-04-24 13:32 11.26570 81.45261 33822 ft 487 kts 291°
2026-04-24 13:33 11.29390 81.38959 33820 ft 487 kts 291°
2026-04-24 13:33 11.32194 81.32690 33817 ft 487 kts 291°
2026-04-24 13:34 11.35006 81.26395 33812 ft 486 kts 291°
2026-04-24 13:34 11.37815 81.20106 33820 ft 486 kts 291°
2026-04-24 13:35 11.40613 81.13836 33819 ft 486 kts 291°
2026-04-24 13:35 11.43418 81.07545 33819 ft 486 kts 291°
2026-04-24 13:36 11.46219 81.01258 33820 ft 486 kts 291°
2026-04-24 13:36 11.49011 80.94988 33818 ft 486 kts 291°
2026-04-24 13:37 11.51816 80.88684 33803 ft 486 kts 291°
2026-04-24 13:37 11.54599 80.82428 33810 ft 486 kts 291°
2026-04-24 13:38 11.57396 80.76136 33809 ft 485 kts 291°
2026-04-24 13:38 11.60183 80.69856 33807 ft 486 kts 291°
2026-04-24 13:39 11.62987 80.63541 33803 ft 486 kts 291°
2026-04-24 13:39 11.65781 80.57236 33810 ft 486 kts 291°
2026-04-24 13:40 11.68570 80.50946 33808 ft 487 kts 290°
2026-04-24 13:40 11.71362 80.44643 33808 ft 487 kts 290°
2026-04-24 13:41 11.74152 80.38330 33804 ft 487 kts 290°
2026-04-24 13:41 11.76935 80.32039 33800 ft 486 kts 290°
2026-04-24 13:42 11.79719 80.25736 33797 ft 486 kts 290°
2026-04-24 13:42 11.82504 80.19426 33791 ft 486 kts 290°
2026-04-24 13:43 11.85276 80.13136 33789 ft 486 kts 290°
2026-04-24 13:43 11.88053 80.06817 33792 ft 486 kts 289°
2026-04-24 13:44 11.90812 80.00487 33785 ft 487 kts 290°
2026-04-24 13:44 11.93557 79.94192 33789 ft 487 kts 289°
2026-04-24 13:45 11.96315 79.87865 33797 ft 486 kts 289°
2026-04-24 13:45 11.99056 79.81564 33798 ft 484 kts 289°
2026-04-24 13:46 12.01799 79.75251 33801 ft 485 kts 289°
2026-04-24 13:46 12.04548 79.68919 33804 ft 484 kts 289°
2026-04-24 13:47 12.07270 79.62647 33805 ft 483 kts 289°
2026-04-24 13:47 12.10053 79.56348 33803 ft 485 kts 290°
2026-04-24 13:48 12.12927 79.50085 33805 ft 485 kts 290°
2026-04-24 13:48 12.15795 79.43816 33812 ft 486 kts 290°
2026-04-24 13:49 12.18659 79.37535 33817 ft 486 kts 290°
2026-04-24 13:49 12.21515 79.31261 33821 ft 484 kts 290°
2026-04-24 13:50 12.24358 79.25006 33824 ft 484 kts 289°
2026-04-24 13:50 12.27213 79.18720 33826 ft 484 kts 289°
2026-04-24 13:51 12.30051 79.12468 33831 ft 483 kts 289°
2026-04-24 13:51 12.32870 79.06252 33833 ft 483 kts 289°
2026-04-24 13:52 12.35719 78.99963 33835 ft 483 kts 289°
2026-04-24 13:52 12.38543 78.93730 33846 ft 482 kts 289°
2026-04-24 13:53 12.41359 78.87508 33868 ft 482 kts 289°
2026-04-24 13:53 12.44194 78.81240 33899 ft 481 kts 289°
2026-04-24 13:54 12.47002 78.75023 33934 ft 481 kts 289°
2026-04-24 13:54 12.49822 78.68774 33948 ft 482 kts 289°
2026-04-24 13:55 12.52649 78.62508 33932 ft 482 kts 289°
2026-04-24 13:55 12.55461 78.56271 33911 ft 482 kts 289°
2026-04-24 13:56 12.58268 78.50042 33895 ft 481 kts 289°
2026-04-24 13:56 12.61068 78.43822 33903 ft 481 kts 289°
2026-04-24 13:57 12.63869 78.37599 33921 ft 480 kts 289°
2026-04-24 13:57 12.66673 78.31364 33940 ft 479 kts 288°
2026-04-24 13:58 12.69468 78.25138 33962 ft 480 kts 288°
2026-04-24 13:58 12.72259 78.18920 33980 ft 480 kts 288°
2026-04-24 13:59 12.75045 78.12710 33986 ft 479 kts 288°
2026-04-24 13:59 12.77840 78.06472 33988 ft 479 kts 288°
2026-04-24 14:00 12.80610 78.00285 33987 ft 479 kts 288°
2026-04-24 14:00 12.83395 77.94059 33991 ft 479 kts 288°
2026-04-24 14:01 12.86186 77.87814 33996 ft 479 kts 288°
2026-04-24 14:01 12.88965 77.81593 33989 ft 479 kts 288°
2026-04-24 14:02 12.91746 77.75362 33988 ft 477 kts 288°
2026-04-24 14:02 12.94516 77.69186 33983 ft 478 kts 290°
2026-04-24 14:03 12.97651 77.63124 33986 ft 482 kts 292°
2026-04-24 14:03 13.00893 77.57087 33988 ft 481 kts 292°
2026-04-24 14:04 13.04137 77.51038 33991 ft 482 kts 292°
2026-04-24 14:04 13.07369 77.44999 33991 ft 482 kts 292°
2026-04-24 14:05 13.10604 77.38949 33996 ft 482 kts 292°
2026-04-24 14:05 13.13834 77.32902 34002 ft 482 kts 292°
2026-04-24 14:06 13.17066 77.26844 34001 ft 482 kts 292°
2026-04-24 14:06 13.20299 77.20785 33995 ft 482 kts 292°
2026-04-24 14:07 13.23528 77.14730 33991 ft 482 kts 292°
2026-04-24 14:07 13.26752 77.08676 33986 ft 482 kts 292°
2026-04-24 14:08 13.29956 77.02658 33974 ft 482 kts 292°
2026-04-24 14:08 13.33176 76.96603 33976 ft 482 kts 292°
2026-04-24 14:09 13.36399 76.90542 33977 ft 482 kts 292°
2026-04-24 14:09 13.39624 76.84473 33980 ft 482 kts 292°
2026-04-24 14:10 13.42843 76.78405 33979 ft 482 kts 292°
2026-04-24 14:10 13.46064 76.72332 33984 ft 482 kts 292°
2026-04-24 14:11 13.49286 76.66252 33982 ft 482 kts 292°
2026-04-24 14:12 13.54094 76.57174 33982 ft 481 kts 292°
2026-04-24 14:12 13.57308 76.51099 33980 ft 482 kts 291°
2026-04-24 14:13 13.60507 76.45048 33978 ft 481 kts 292°
2026-04-24 14:13 13.63725 76.38955 33978 ft 482 kts 291°
2026-04-24 14:14 13.66913 76.32917 33973 ft 481 kts 291°
2026-04-24 14:14 13.71711 76.23817 33971 ft 481 kts 291°
2026-04-24 14:15 13.74911 76.17746 33975 ft 481 kts 291°
2026-04-24 14:15 13.78104 76.11683 33978 ft 480 kts 291°
2026-04-24 14:16 13.81290 76.05627 33976 ft 480 kts 291°
2026-04-24 14:17 13.86070 75.96532 33967 ft 479 kts 291°
2026-04-24 14:17 13.90831 75.87463 33946 ft 480 kts 291°
2026-04-24 14:18 13.94022 75.81380 33943 ft 480 kts 291°
2026-04-24 14:18 13.97195 75.75323 33941 ft 479 kts 291°
2026-04-24 14:19 14.00347 75.69300 33936 ft 479 kts 291°
2026-04-24 14:19 14.03522 75.63229 33938 ft 479 kts 291°
2026-04-24 14:20 14.06694 75.57161 33937 ft 480 kts 291°
2026-04-24 14:20 14.09864 75.51090 33940 ft 480 kts 291°
2026-04-24 14:21 14.13036 75.45008 33936 ft 480 kts 291°
2026-04-24 14:21 14.16201 75.38926 33933 ft 481 kts 291°
2026-04-24 14:22 14.19391 75.32790 33932 ft 481 kts 291°
2026-04-24 14:23 14.24122 75.23682 33929 ft 481 kts 291°
2026-04-24 14:23 14.27304 75.17548 33923 ft 482 kts 291°
2026-04-24 14:24 14.30451 75.11475 33923 ft 482 kts 291°
2026-04-24 14:24 14.33629 75.05334 33927 ft 482 kts 291°
2026-04-24 14:25 14.36253 75.00268 33921 ft 482 kts 291°
2026-04-24 14:25 14.39952 74.93110 33910 ft 481 kts 291°
2026-04-24 14:26 14.43110 74.86995 33898 ft 481 kts 291°
2026-04-24 14:26 14.46246 74.80912 33895 ft 482 kts 291°
2026-04-24 14:27 14.49420 74.74784 33898 ft 481 kts 291°
2026-04-24 14:27 14.52641 74.68716 33894 ft 483 kts 292°
2026-04-24 14:28 14.55876 74.62623 33879 ft 482 kts 292°
2026-04-24 14:28 14.59107 74.56522 33857 ft 482 kts 292°
2026-04-24 14:29 14.62322 74.50438 33837 ft 482 kts 291°
2026-04-24 14:29 14.65539 74.44344 33824 ft 482 kts 291°
2026-04-24 14:30 14.68228 74.39245 33819 ft 483 kts 291°
2026-04-24 14:30 14.71968 74.32147 33821 ft 482 kts 291°
2026-04-24 14:31 14.75185 74.26037 33819 ft 483 kts 291°
2026-04-24 14:31 14.78398 74.19930 33820 ft 483 kts 291°
2026-04-24 14:32 14.81605 74.13827 33816 ft 483 kts 291°
2026-04-24 14:32 14.84829 74.07686 33814 ft 483 kts 291°
2026-04-24 14:33 14.88021 74.01601 33801 ft 483 kts 291°
2026-04-24 14:33 14.91242 73.95454 33792 ft 483 kts 291°
2026-04-24 14:34 14.94456 73.89335 33792 ft 482 kts 291°
2026-04-24 14:34 14.97650 73.83244 33793 ft 483 kts 291°
2026-04-24 14:35 15.00859 73.77115 33793 ft 483 kts 291°
2026-04-24 14:35 15.04054 73.71013 33793 ft 481 kts 291°
2026-04-24 14:36 15.07251 73.64892 33794 ft 482 kts 291°
2026-04-24 14:36 15.10447 73.58762 33790 ft 482 kts 291°
2026-04-24 14:37 15.13629 73.52656 33796 ft 482 kts 291°
2026-04-24 14:37 15.16814 73.46536 33798 ft 483 kts 291°
2026-04-24 14:38 15.20019 73.40373 33804 ft 484 kts 291°
2026-04-24 14:38 15.23225 73.34204 33810 ft 485 kts 291°
2026-04-24 14:39 15.26419 73.28054 33813 ft 483 kts 291°
2026-04-24 14:39 15.29612 73.21897 33805 ft 483 kts 291°
2026-04-24 14:40 15.32783 73.15783 33803 ft 483 kts 290°
2026-04-24 14:40 15.35976 73.09619 33800 ft 483 kts 290°
2026-04-24 14:41 15.39165 73.03455 33801 ft 483 kts 290°
2026-04-24 14:41 15.42351 72.97292 33800 ft 483 kts 290°
2026-04-24 14:42 15.45001 72.92164 33801 ft 484 kts 290°
2026-04-24 14:42 15.48695 72.85006 33802 ft 483 kts 290°
2026-04-24 14:43 15.51873 72.78842 33801 ft 484 kts 291°
2026-04-24 14:43 15.55050 72.72681 33802 ft 484 kts 290°
2026-04-24 14:44 15.58225 72.66517 33799 ft 483 kts 290°
2026-04-24 14:44 15.61402 72.60339 33792 ft 483 kts 291°
2026-04-24 14:45 15.64564 72.54188 33793 ft 482 kts 290°
2026-04-24 14:45 15.67724 72.48034 33790 ft 483 kts 290°
2026-04-24 14:46 15.70891 72.41863 33789 ft 484 kts 290°
2026-04-24 14:46 15.74068 72.35664 33786 ft 482 kts 290°
2026-04-24 14:47 15.76699 72.30527 33785 ft 483 kts 290°
2026-04-24 14:47 15.80381 72.23336 33793 ft 483 kts 290°
2026-04-24 14:48 15.83544 72.17150 33794 ft 484 kts 290°
2026-04-24 14:48 15.86702 72.10963 33797 ft 484 kts 290°
2026-04-24 14:49 15.89858 72.04783 33797 ft 484 kts 290°
2026-04-24 14:49 15.93020 71.98579 33797 ft 486 kts 290°
2026-04-24 14:50 15.96184 71.92371 33796 ft 483 kts 290°
2026-04-24 14:50 15.99344 71.86162 33793 ft 481 kts 290°
2026-04-24 14:51 16.02471 71.80014 33794 ft 481 kts 290°
2026-04-24 14:51 16.05603 71.73846 33792 ft 481 kts 290°
2026-04-24 14:52 16.08732 71.67673 33792 ft 481 kts 290°
2026-04-24 14:52 16.11906 71.61489 33786 ft 483 kts 291°
2026-04-24 14:53 16.15132 71.55355 33789 ft 481 kts 291°
2026-04-24 14:53 16.18348 71.49219 33791 ft 483 kts 291°
2026-04-24 14:54 16.21557 71.43081 33791 ft 482 kts 291°
2026-04-24 14:54 16.24774 71.36918 33789 ft 482 kts 291°
2026-04-24 14:55 16.27438 71.31808 33791 ft 482 kts 291°
2026-04-24 14:55 16.31178 71.24628 33790 ft 481 kts 291°
2026-04-24 14:56 16.34381 71.18472 33790 ft 483 kts 291°
2026-04-24 14:56 16.37576 71.12324 33789 ft 481 kts 291°
2026-04-24 14:57 16.40767 71.06180 33791 ft 481 kts 291°
2026-04-24 14:57 16.43951 71.00040 33794 ft 482 kts 292°
2026-04-24 14:58 16.47155 70.93851 33805 ft 481 kts 292°
2026-04-24 14:58 16.50342 70.87697 33811 ft 481 kts 292°
2026-04-24 14:59 16.53529 70.81551 33815 ft 483 kts 293°
2026-04-24 14:59 16.56754 70.75407 33818 ft 482 kts 293°
2026-04-24 15:00 16.59986 70.69253 33814 ft 483 kts 293°
2026-04-24 15:00 16.63223 70.63069 33810 ft 483 kts 294°
2026-04-24 15:01 16.66456 70.56886 33807 ft 482 kts 294°
2026-04-24 15:01 16.69668 70.50736 33807 ft 482 kts 294°
2026-04-24 15:02 16.72875 70.44589 33805 ft 483 kts 294°
2026-04-24 15:02 16.76087 70.38420 33807 ft 483 kts 294°
2026-04-24 15:03 16.78773 70.33266 33813 ft 483 kts 294°
2026-04-24 15:03 16.82535 70.26041 33824 ft 483 kts 294°
2026-04-24 15:04 16.85749 70.19852 33827 ft 483 kts 294°
2026-04-24 15:04 16.88965 70.13660 33829 ft 483 kts 294°
2026-04-24 15:05 16.92165 70.07491 33830 ft 483 kts 294°
2026-04-24 15:05 16.95391 70.01267 33833 ft 483 kts 295°
2026-04-24 15:06 16.98594 69.95078 33835 ft 483 kts 295°
2026-04-24 15:06 17.01796 69.88890 33836 ft 482 kts 295°
2026-04-24 15:07 17.04988 69.82709 33839 ft 482 kts 295°
2026-04-24 15:07 17.08182 69.76524 33840 ft 482 kts 295°
2026-04-24 15:08 17.11367 69.70348 33840 ft 481 kts 295°
2026-04-24 15:08 17.14545 69.64177 33842 ft 480 kts 296°
2026-04-24 15:09 17.17713 69.58021 33845 ft 480 kts 296°
2026-04-24 15:09 17.20894 69.51862 33845 ft 481 kts 296°
2026-04-24 15:10 17.24090 69.45709 33843 ft 480 kts 296°
2026-04-24 15:10 17.27305 69.39514 33839 ft 481 kts 296°
2026-04-24 15:11 17.30497 69.33352 33837 ft 480 kts 296°
2026-04-24 15:11 17.33675 69.27204 33832 ft 480 kts 297°
2026-04-24 15:12 17.36861 69.21040 33829 ft 480 kts 297°
2026-04-24 15:12 17.41593 69.11866 33829 ft 480 kts 297°
2026-04-24 15:13 17.44776 69.05692 33831 ft 480 kts 297°
2026-04-24 15:13 17.47957 68.99512 33835 ft 480 kts 297°
2026-04-24 15:14 17.51126 68.93349 33839 ft 479 kts 297°
2026-04-24 15:14 17.54295 68.87180 33843 ft 479 kts 298°
2026-04-24 15:15 17.57461 68.81016 33847 ft 480 kts 298°
2026-04-24 15:15 17.60650 68.74802 33845 ft 480 kts 298°
2026-04-24 15:16 17.63817 68.68617 33849 ft 480 kts 298°
2026-04-24 15:16 17.66981 68.62439 33849 ft 480 kts 298°
2026-04-24 15:17 17.70141 68.56255 33849 ft 480 kts 299°
2026-04-24 15:17 17.73303 68.50069 33849 ft 481 kts 299°
2026-04-24 15:18 17.76470 68.43861 33852 ft 482 kts 299°
2026-04-24 15:18 17.79645 68.37640 33851 ft 483 kts 299°
2026-04-24 15:19 17.82820 68.31403 33857 ft 483 kts 299°
2026-04-24 15:19 17.85993 68.25168 33854 ft 483 kts 299°
2026-04-24 15:20 17.89166 68.18927 33854 ft 484 kts 299°
2026-04-24 15:20 17.92337 68.12684 33855 ft 485 kts 300°
2026-04-24 15:21 17.95517 68.06415 33856 ft 486 kts 300°
2026-04-24 15:21 17.98701 68.00129 33870 ft 486 kts 300°
2026-04-24 15:22 18.01883 67.93845 33875 ft 486 kts 300°
2026-04-24 15:23 18.06666 67.84377 33860 ft 487 kts 300°
2026-04-24 15:23 18.11530 67.75013 33871 ft 486 kts 301°
2026-04-24 15:25 18.19169 67.60486 33872 ft 485 kts 301°
2026-04-24 15:26 18.27843 67.43894 33880 ft 485 kts 302°
2026-04-24 15:27 18.37584 67.25203 33878 ft 483 kts 301°
2026-04-24 15:29 18.47282 67.06536 33860 ft 482 kts 302°
2026-04-24 15:31 18.58014 66.85819 33870 ft 482 kts 302°
2026-04-24 15:33 18.71396 66.59885 33864 ft 481 kts 302°
2026-04-24 15:34 18.79382 66.44350 33864 ft 481 kts 302°
2026-04-24 15:35 18.87385 66.28752 33875 ft 481 kts 302°
2026-04-24 15:36 18.90580 66.22509 33874 ft 481 kts 302°
2026-04-24 15:36 18.95363 66.13155 33874 ft 482 kts 302°
2026-04-24 15:37 18.98546 66.06920 33876 ft 483 kts 302°
2026-04-24 15:37 19.01755 66.00631 33869 ft 483 kts 302°
2026-04-24 15:38 19.04940 65.94384 33875 ft 482 kts 302°
2026-04-24 15:38 19.08118 65.88135 33876 ft 482 kts 302°
2026-04-24 15:39 19.11293 65.81892 33882 ft 482 kts 302°
2026-04-24 15:39 19.14493 65.75594 33876 ft 482 kts 302°
2026-04-24 15:40 19.17677 65.69319 33871 ft 483 kts 301°
2026-04-24 15:40 19.20851 65.63058 33869 ft 483 kts 302°
2026-04-24 15:41 19.24040 65.56758 33880 ft 484 kts 301°
2026-04-24 15:41 19.27209 65.50494 33879 ft 483 kts 302°
2026-04-24 15:42 19.30401 65.44175 33870 ft 483 kts 301°
2026-04-24 15:42 19.33566 65.37904 33875 ft 483 kts 302°
2026-04-24 15:43 19.36730 65.31629 33869 ft 484 kts 301°
2026-04-24 15:43 19.39922 65.25289 33876 ft 484 kts 301°
2026-04-24 15:44 19.43091 65.18986 33875 ft 485 kts 301°
2026-04-24 15:44 19.46259 65.12679 33870 ft 484 kts 301°
2026-04-24 15:45 19.49442 65.06331 33881 ft 484 kts 301°
2026-04-24 15:45 19.52601 65.00028 33868 ft 484 kts 301°
2026-04-24 15:46 19.55828 64.93751 33877 ft 485 kts 302°
2026-04-24 15:46 19.59090 64.87448 33874 ft 485 kts 302°
2026-04-24 15:47 19.62336 64.81152 33877 ft 486 kts 302°
2026-04-24 15:47 19.65578 64.74847 33873 ft 486 kts 302°
2026-04-24 15:48 19.68817 64.68542 33864 ft 485 kts 302°
2026-04-24 15:48 19.72062 64.62215 33860 ft 485 kts 302°
2026-04-24 15:49 19.75291 64.55908 33861 ft 486 kts 302°
2026-04-24 15:49 19.78527 64.49587 33855 ft 486 kts 302°
2026-04-24 15:50 19.81758 64.43268 33859 ft 487 kts 302°
2026-04-24 15:50 19.84985 64.36943 33856 ft 486 kts 302°
2026-04-24 15:51 19.88227 64.30586 33859 ft 486 kts 302°
2026-04-24 15:51 19.91448 64.24264 33855 ft 486 kts 302°
2026-04-24 15:52 19.94669 64.17935 33852 ft 487 kts 302°
2026-04-24 15:52 19.97898 64.11585 33860 ft 487 kts 302°
2026-04-24 15:53 20.01148 64.05183 33848 ft 488 kts 302°
2026-04-24 15:53 20.04368 63.98832 33855 ft 487 kts 302°
2026-04-24 15:54 20.07575 63.92500 33855 ft 485 kts 302°
2026-04-24 15:54 20.10781 63.86170 33861 ft 485 kts 302°
2026-04-24 15:55 20.13985 63.79832 33863 ft 485 kts 302°
2026-04-24 15:55 20.17182 63.73499 33862 ft 486 kts 302°
2026-04-24 15:56 20.20397 63.67123 33866 ft 485 kts 302°
2026-04-24 15:56 20.23584 63.60799 33865 ft 485 kts 302°
2026-04-24 15:57 20.26772 63.54460 33866 ft 484 kts 302°
2026-04-24 15:57 20.29949 63.48140 33868 ft 484 kts 302°
2026-04-24 15:58 20.33147 63.41771 33873 ft 483 kts 302°
2026-04-24 15:58 20.36318 63.35449 33875 ft 482 kts 302°
2026-04-24 15:59 20.39475 63.29150 33873 ft 483 kts 301°
2026-04-24 15:59 20.42659 63.22785 33877 ft 482 kts 301°
2026-04-24 16:00 20.45824 63.16454 33874 ft 483 kts 301°
2026-04-24 16:00 20.48984 63.10124 33874 ft 482 kts 301°
2026-04-24 16:01 20.52139 63.03795 33870 ft 482 kts 301°
2026-04-24 16:01 20.55293 62.97465 33867 ft 481 kts 301°
2026-04-24 16:02 20.58436 62.91149 33865 ft 481 kts 301°
2026-04-24 16:02 20.61568 62.84846 33863 ft 480 kts 301°
2026-04-24 16:03 20.64705 62.78529 33861 ft 481 kts 301°
2026-04-24 16:03 20.67843 62.72198 33859 ft 481 kts 301°
2026-04-24 16:04 20.70978 62.65868 33856 ft 481 kts 301°
2026-04-24 16:04 20.74123 62.59510 33855 ft 481 kts 301°
2026-04-24 16:05 20.78803 62.50035 33854 ft 480 kts 301°
2026-04-24 16:06 20.83485 62.40542 33856 ft 481 kts 301°
2026-04-24 16:07 20.88181 62.31001 33857 ft 481 kts 300°
2026-04-24 16:07 20.92838 62.21520 33854 ft 481 kts 300°
2026-04-24 16:08 20.97527 62.11962 33855 ft 481 kts 300°
2026-04-24 16:09 21.02189 62.02440 33855 ft 481 kts 300°
2026-04-24 16:09 21.05300 61.96073 33854 ft 481 kts 300°
2026-04-24 16:11 21.13074 61.80123 33867 ft 481 kts 300°
2026-04-24 16:11 21.16139 61.73753 33863 ft 481 kts 298°
2026-04-24 16:12 21.19597 61.63579 33858 ft 487 kts 287°
2026-04-24 16:13 21.21144 61.52733 33865 ft 492 kts 276°
2026-04-24 16:14 21.21549 61.38073 33864 ft 492 kts 275°
2026-04-24 16:14 21.21835 61.27070 33870 ft 491 kts 274°
2026-04-24 16:15 21.22120 61.16068 33862 ft 492 kts 274°
2026-04-24 16:16 21.22401 61.05021 33858 ft 493 kts 274°
2026-04-24 16:17 21.22854 60.86645 33861 ft 492 kts 274°
2026-04-24 16:18 21.23201 60.71974 33856 ft 491 kts 274°
2026-04-24 16:19 21.23452 60.60991 33851 ft 491 kts 274°
2026-04-24 16:20 21.23697 60.49971 33861 ft 490 kts 274°
2026-04-24 16:20 21.23934 60.39028 33852 ft 490 kts 274°
2026-04-24 16:21 21.24162 60.28047 33858 ft 489 kts 274°
2026-04-24 16:22 21.24311 60.20697 33856 ft 487 kts 274°
2026-04-24 16:22 21.24517 60.10286 33856 ft 487 kts 274°
2026-04-24 16:23 21.24656 60.03038 33857 ft 487 kts 274°
2026-04-24 16:24 21.24857 59.92092 33852 ft 487 kts 274°
2026-04-24 16:24 21.24986 59.84835 33852 ft 486 kts 274°
2026-04-24 16:25 21.25113 59.77601 33851 ft 485 kts 274°
2026-04-24 16:25 21.25235 59.70337 33854 ft 485 kts 274°
2026-04-24 16:26 21.25414 59.59389 33847 ft 484 kts 274°
2026-04-24 16:27 21.25585 59.48514 33850 ft 483 kts 274°
2026-04-24 16:27 21.25698 59.41309 33850 ft 483 kts 274°
2026-04-24 16:28 21.25807 59.34104 33849 ft 482 kts 273°
2026-04-24 16:28 21.25960 59.23258 33853 ft 482 kts 274°
2026-04-24 16:29 21.26060 59.16035 33852 ft 482 kts 273°
2026-04-24 16:30 21.26249 59.01625 33854 ft 482 kts 273°
2026-04-24 16:30 21.26337 58.94408 33862 ft 481 kts 273°
2026-04-24 16:31 21.26466 58.87246 33860 ft 479 kts 275°
2026-04-24 16:31 21.27111 58.80155 33865 ft 477 kts 281°
2026-04-24 16:32 21.28411 58.73148 33859 ft 474 kts 287°
2026-04-24 16:32 21.30265 58.66319 33866 ft 474 kts 289°
2026-04-24 16:33 21.32240 58.59454 33870 ft 475 kts 289°
2026-04-24 16:33 21.34199 58.52626 33869 ft 474 kts 289°
2026-04-24 16:34 21.36145 58.45826 33869 ft 472 kts 289°
2026-04-24 16:34 21.38082 58.39039 33864 ft 473 kts 289°
2026-04-24 16:35 21.40025 58.32226 33861 ft 473 kts 289°
2026-04-24 16:35 21.41967 58.25389 33861 ft 473 kts 289°
2026-04-24 16:36 21.43895 58.18597 33863 ft 473 kts 289°
2026-04-24 16:36 21.45841 58.11733 33864 ft 473 kts 289°
2026-04-24 16:37 21.47764 58.04935 33864 ft 473 kts 289°
2026-04-24 16:37 21.49691 57.98112 33864 ft 473 kts 289°
2026-04-24 16:38 21.51630 57.91234 33865 ft 473 kts 288°
2026-04-24 16:38 21.53540 57.84436 33865 ft 473 kts 289°
2026-04-24 16:39 21.55461 57.77594 33865 ft 472 kts 288°
2026-04-24 16:39 21.57363 57.70805 33866 ft 471 kts 288°
2026-04-24 16:40 21.59265 57.64016 33865 ft 471 kts 289°
2026-04-24 16:40 21.61151 57.57274 33863 ft 471 kts 288°
2026-04-24 16:41 21.63049 57.50462 33858 ft 470 kts 288°
2026-04-24 16:41 21.64928 57.43698 33857 ft 470 kts 288°
2026-04-24 16:42 21.66826 57.36860 33858 ft 470 kts 288°
2026-04-24 16:42 21.68699 57.30092 33860 ft 470 kts 288°
2026-04-24 16:43 21.70574 57.23300 33859 ft 469 kts 288°
2026-04-24 16:43 21.72439 57.16545 33858 ft 468 kts 288°
2026-04-24 16:44 21.74295 57.09815 33855 ft 468 kts 288°
2026-04-24 16:44 21.76168 57.03011 33863 ft 467 kts 288°
2026-04-24 16:45 21.78030 56.96220 33869 ft 467 kts 288°
2026-04-24 16:45 21.79877 56.89471 33866 ft 467 kts 288°
2026-04-24 16:46 21.81710 56.82756 33864 ft 466 kts 288°
2026-04-24 16:46 21.83505 56.76172 33861 ft 466 kts 288°
2026-04-24 16:47 21.85345 56.69413 33852 ft 466 kts 288°
2026-04-24 16:47 21.87193 56.62639 33852 ft 466 kts 288°
2026-04-24 16:48 21.89045 56.55828 33850 ft 466 kts 288°
2026-04-24 16:48 21.90873 56.49077 33846 ft 465 kts 287°
2026-04-24 16:49 21.92685 56.42373 33839 ft 465 kts 287°
2026-04-24 16:49 21.94515 56.35587 33836 ft 465 kts 287°
2026-04-24 16:50 21.96342 56.28817 33834 ft 464 kts 287°
2026-04-24 16:50 21.98165 56.22034 33833 ft 465 kts 287°
2026-04-24 16:51 21.99966 56.15305 33839 ft 464 kts 287°
2026-04-24 16:51 22.01774 56.08540 33830 ft 466 kts 287°
2026-04-24 16:52 22.03583 56.01804 33830 ft 465 kts 287°
2026-04-24 16:52 22.05395 55.95064 33832 ft 465 kts 287°
2026-04-24 16:53 22.07207 55.88291 33830 ft 464 kts 287°
2026-04-24 16:53 22.08997 55.81588 33831 ft 464 kts 287°
2026-04-24 16:54 22.10800 55.74813 33831 ft 464 kts 287°
2026-04-24 16:54 22.12592 55.68063 33828 ft 463 kts 287°
2026-04-24 16:55 22.14378 55.61301 33831 ft 464 kts 286°
2026-04-24 16:55 22.15752 55.54464 33834 ft 464 kts 281°
2026-04-24 16:56 22.16563 55.47506 33838 ft 465 kts 277°
2026-04-24 16:56 22.17245 55.40512 33838 ft 464 kts 277°
2026-04-24 16:57 22.17927 55.33476 33841 ft 464 kts 277°
2026-04-24 16:57 22.18600 55.26505 33839 ft 464 kts 277°
2026-04-24 16:58 22.19274 55.19511 33843 ft 464 kts 277°
2026-04-24 16:58 22.19942 55.12546 33853 ft 463 kts 277°
2026-04-24 16:59 22.20608 55.05573 33854 ft 463 kts 277°
2026-04-24 17:00 22.21602 54.95082 33851 ft 463 kts 277°
2026-04-24 17:00 22.22588 54.84616 33841 ft 462 kts 277°
2026-04-24 17:01 22.23564 54.74197 33837 ft 461 kts 277°
2026-04-24 17:02 22.24532 54.63773 33832 ft 461 kts 277°
2026-04-24 17:02 22.25174 54.56822 33833 ft 461 kts 277°
2026-04-24 17:03 22.26126 54.46456 33835 ft 461 kts 277°
2026-04-24 17:04 22.26754 54.39568 33843 ft 461 kts 277°
2026-04-24 17:04 22.27698 54.29175 33851 ft 459 kts 276°
2026-04-24 17:05 22.28316 54.22314 33857 ft 458 kts 276°
2026-04-24 17:06 22.29244 54.11980 33853 ft 458 kts 276°
2026-04-24 17:06 22.30164 54.01639 33851 ft 459 kts 276°
2026-04-24 17:07 22.30778 53.94698 33848 ft 459 kts 276°
2026-04-24 17:08 22.31992 53.80870 33855 ft 458 kts 276°
2026-04-24 17:08 22.32591 53.74007 33860 ft 458 kts 276°
2026-04-24 17:09 22.33785 53.60209 33857 ft 457 kts 276°
2026-04-24 17:10 22.34956 53.46538 33856 ft 457 kts 276°
2026-04-24 17:12 22.37283 53.18969 33844 ft 457 kts 275°
2026-04-24 18:54 24.24263 39.89454 13284 ft 328 kts 307°
2026-04-24 18:55 24.27707 39.87578 12738 ft 341 kts 346°
2026-04-24 18:55 24.30064 39.87164 12438 ft 339 kts 347°
2026-04-24 18:55 24.33183 39.86623 12001 ft 337 kts 346°
2026-04-24 18:56 24.34735 39.86332 11771 ft 336 kts 346°
2026-04-24 18:56 24.37814 39.85719 11479 ft 328 kts 346°
2026-04-24 18:56 24.40022 39.85263 11340 ft 320 kts 345°
2026-04-24 18:56 24.42212 39.84806 11199 ft 313 kts 346°
2026-04-24 18:57 24.44369 39.84354 11027 ft 307 kts 345°
2026-04-24 18:57 24.45773 39.84061 10850 ft 306 kts 345°
2026-04-24 18:57 24.47859 39.83616 10583 ft 304 kts 345°
2026-04-24 18:57 24.50659 39.83011 10219 ft 302 kts 345°
2026-04-24 18:58 24.52739 39.82562 10085 ft 296 kts 345°
2026-04-24 18:58 24.54761 39.82127 9961 ft 289 kts 345°
2026-04-24 18:58 24.56706 39.81711 9846 ft 283 kts 345°
2026-04-24 18:58 24.58640 39.81300 9729 ft 277 kts 345°
2026-04-24 18:59 24.59885 39.81038 9655 ft 273 kts 345°
2026-04-24 18:59 24.61742 39.80647 9546 ft 267 kts 345°
2026-04-24 18:59 24.64172 39.80132 9395 ft 259 kts 345°
2026-04-24 18:59 24.65913 39.79762 9289 ft 253 kts 345°
2026-04-24 19:00 24.67646 39.79393 9184 ft 246 kts 345°
2026-04-24 19:00 24.69326 39.79035 9071 ft 240 kts 345°
2026-04-24 19:00 24.70400 39.78806 8998 ft 236 kts 345°
2026-04-24 19:00 24.72543 39.78350 8840 ft 228 kts 345°
2026-04-24 19:01 24.74102 39.78019 8660 ft 225 kts 344°
2026-04-24 19:01 24.75649 39.77688 8437 ft 225 kts 345°
2026-04-24 19:01 24.77215 39.77352 8219 ft 224 kts 344°
2026-04-24 19:01 24.78746 39.77025 8013 ft 223 kts 345°
2026-04-24 19:02 24.79772 39.76806 7874 ft 223 kts 345°
2026-04-24 19:02 24.81814 39.76371 7592 ft 221 kts 345°
2026-04-24 19:02 24.83341 39.76047 7388 ft 220 kts 345°
2026-04-24 19:02 24.84342 39.75835 7244 ft 220 kts 345°
2026-04-24 19:03 24.86352 39.75405 6970 ft 219 kts 346°
2026-04-24 19:03 24.87811 39.74942 6751 ft 214 kts 323°
2026-04-24 19:03 24.88541 39.74239 6593 ft 209 kts 301°
2026-04-24 19:03 24.88994 39.72245 6286 ft 202 kts 265°
2026-04-24 19:04 24.88901 39.71207 6144 ft 201 kts 261°
2026-04-24 19:04 24.88594 39.69172 6080 ft 203 kts 253°
2026-04-24 19:04 24.88210 39.68241 6064 ft 203 kts 230°
2026-04-24 19:04 24.87095 39.67281 6080 ft 204 kts 209°
2026-04-24 19:05 24.85303 39.66541 6071 ft 204 kts 196°
2026-04-24 19:05 24.84385 39.66278 6072 ft 204 kts 195°
2026-04-24 19:05 24.82527 39.65814 6071 ft 204 kts 191°
2026-04-24 19:05 24.81573 39.65657 6064 ft 204 kts 186°
2026-04-24 19:06 24.80181 39.65643 6068 ft 192 kts 177°
2026-04-24 19:06 24.78486 39.65898 6039 ft 175 kts 172°
2026-04-24 19:06 24.77298 39.66143 5836 ft 174 kts 171°
2026-04-24 19:06 24.76097 39.66402 5620 ft 173 kts 171°
2026-04-24 19:07 24.74912 39.66659 5400 ft 171 kts 171°
2026-04-24 19:07 24.74122 39.66830 5251 ft 171 kts 171°
2026-04-24 19:07 24.72962 39.67078 5036 ft 170 kts 171°
2026-04-24 19:07 24.71406 39.67411 4755 ft 169 kts 171°
2026-04-24 19:08 24.70237 39.67659 4538 ft 169 kts 171°
2026-04-24 19:08 24.69073 39.67906 4314 ft 169 kts 171°
2026-04-24 19:08 24.67915 39.68151 4093 ft 167 kts 170°
2026-04-24 19:08 24.66765 39.68396 3876 ft 167 kts 170°
2026-04-24 19:09 24.65997 39.68559 3730 ft 167 kts 170°
2026-04-24 19:09 24.64855 39.68801 3520 ft 167 kts 170°
2026-04-24 19:09 24.63344 39.69122 3227 ft 159 kts 170°
2026-04-24 19:09 24.62277 39.69344 3011 ft 154 kts 170°
2026-04-24 19:10 24.61226 39.69567 2820 ft 152 kts 169°
2026-04-24 19:10 24.60531 39.69718 2724 ft 153 kts 170°
2026-04-24 19:10 24.59122 39.70016 2463 ft 152 kts 170°
2026-04-24 19:10 24.58076 39.70241 2259 ft 151 kts 171°
2026-04-24 19:11 24.57052 39.70456 2150 ft 145 kts 171°
2026-04-24 19:11 24.56165 39.70641 2141 ft 107 kts 169°
2026-04-24 19:11 24.55607 39.70764 2135 ft 54 kts 169°
2026-04-24 19:11 24.55393 39.70828 2125 ft 21 kts 154°
2026-04-24 19:12 24.55300 39.70878 2120 ft 19 kts 147°
2026-04-24 19:12 24.55233 39.70947 2118 ft 10 kts 139°
2026-04-24 19:12 24.55215 39.70992 2118 ft 2 kts 86°
2026-04-24 19:12 24.55215 39.70993 2118 ft 0 kts 86°
2026-04-24 19:14 24.55215 39.70997 2118 ft 1 kts 86°
2026-04-24 19:15 24.55216 39.71004 2118 ft 1 kts 85°
2026-04-24 19:15 24.55218 39.71017 2118 ft 1 kts 81°
2026-04-24 19:15 24.55219 39.71025 2118 ft 1 kts 81°
2026-04-24 19:15 24.55221 39.71043 2119 ft 2 kts 81°
2026-04-24 19:16 24.55231 39.71107 2121 ft 4 kts 81°
2026-04-24 19:16 24.55234 39.71127 2122 ft 3 kts 81°
2026-04-24 19:16 24.55237 39.71150 2123 ft 2 kts 81°
2026-04-24 19:17 24.55239 39.71165 2123 ft 1 kts 81°
2026-04-24 19:17 24.55241 39.71175 2124 ft 1 kts 80°
2026-04-24 19:17 24.55249 39.71200 2126 ft 2 kts 59°
2026-04-24 19:17 24.55264 39.71217 2127 ft 3 kts 34°
2026-04-24 19:18 24.55296 39.71226 2130 ft 4 kts 352°
2026-04-24 19:18 24.55336 39.71210 2133 ft 7 kts 342°
2026-04-24 19:18 24.55386 39.71198 2136 ft 6 kts 349°
2026-04-24 19:18 24.55419 39.71191 2138 ft 5 kts 349°
2026-04-24 19:19 24.55448 39.71191 2140 ft 1 kts 28°
2026-04-24 19:19 24.55453 39.71196 2141 ft 0 kts 50°
2026-04-24 19:19 24.55458 39.71218 2142 ft 4 kts 76°
2026-04-24 19:19 24.55465 39.71252 2143 ft 4 kts 78°
2026-04-24 19:20 24.55468 39.71269 2143 ft 2 kts 78°
2026-04-24 19:20 24.55469 39.71276 2144 ft 0 kts 79°